Date String (YYYY-MM-DD hh:mm:ss) UTC,Instrument flags,Ambient pressure (hPa),Sample flow (lpm),Bypass flow (lpm),Sample temperature (°C),Ambient temperature (°C),ASC tube jacket temperature (°C),LED temperature (°C),Box temperature (°C),Sample RH (%),Span deviation,Mass concentration (μg/m³),Mass concentration (μg/m³),Mass concentration (μg/m³)
DateTimeUTC,F1_M11,P_M11,Q1_M11,Q2_M11,T1_M11,T2_M11,T3_M11,T4_M11,T5_M11,U1_M11,ZSPAN_M11,X0_M11,X2_M11,X1_M11
2023-02-26 06:00:00,,0820.3,4.99,0.00,22.4,20.8,00.0,31.1,24.2,13.9,0000.0,0007.72,0003.65,0003.13
2023-02-26 06:01:00,,0820.3,4.99,0.00,22.4,20.8,00.0,31.1,24.1,14.0,0000.0,0007.88,0003.64,0003.12
2023-02-26 06:02:00,,0820.2,5.00,0.00,22.3,20.8,00.0,31.1,24.1,14.0,0000.0,0007.94,0003.64,0003.12
2023-02-26 06:03:00,,0820.3,5.00,0.00,22.3,20.7,00.0,31.1,24.1,14.0,0000.0,0007.97,0003.65,0003.11
2023-02-26 06:04:00,,0820.2,4.99,0.00,22.3,20.7,00.0,31.1,24.1,14.0,0000.0,0008.29,0003.63,0003.08
2023-02-26 06:05:00,,0820.2,5.01,0.00,22.3,20.7,00.0,31.1,24.1,13.9,0000.0,0008.97,0003.61,0003.06
2023-02-26 06:06:00,,0820.2,5.00,0.00,22.3,20.7,00.0,31.1,24.1,13.9,0000.0,0009.30,0003.62,0003.04
2023-02-26 06:07:00,,0820.2,4.99,0.00,22.3,20.7,00.0,31.1,24.1,14.0,0000.0,0009.01,0003.60,0003.00
2023-02-26 06:08:00,,0820.2,5.00,0.00,22.3,20.6,00.0,31.0,24.1,14.0,0000.0,0008.64,0003.55,0002.98
2023-02-26 06:09:00,,0820.2,5.01,0.00,22.3,20.6,00.0,31.0,24.0,13.9,0000.0,0008.54,0003.55,0003.00
2023-02-26 06:10:00,,0820.2,5.01,0.00,22.3,20.6,00.0,31.0,24.1,13.9,0000.0,0008.72,0003.57,0003.00
2023-02-26 06:11:00,,0820.2,5.01,0.00,22.3,20.6,00.0,31.0,24.0,13.9,0000.0,0009.20,0003.56,0002.99
2023-02-26 06:12:00,,0820.2,5.00,0.00,22.2,20.6,00.0,31.0,24.0,13.9,0000.0,0009.00,0003.56,0002.99
2023-02-26 06:13:00,,0820.2,5.00,0.00,22.2,20.5,00.0,31.0,24.0,13.9,0000.0,0009.37,0003.53,0002.99
2023-02-26 06:14:00,,0820.2,5.00,0.00,22.2,20.5,00.0,31.0,24.0,13.8,0000.0,0010.30,0003.55,0003.00
2023-02-26 06:15:00,,0820.2,5.01,0.00,22.2,20.5,00.0,31.0,23.9,13.6,0000.0,0010.06,0003.58,0002.99
2023-02-26 06:16:00,,0820.2,5.00,0.00,22.2,20.5,00.0,31.0,24.0,13.7,0000.0,0009.34,0003.58,0002.97
2023-02-26 06:17:00,,0820.2,5.00,0.00,22.2,20.5,00.0,31.0,23.9,13.7,0000.0,0008.77,0003.56,0002.97
2023-02-26 06:18:00,,0820.2,5.00,0.00,22.2,20.5,00.0,31.0,23.9,13.3,0000.0,0008.55,0003.52,0002.95
2023-02-26 06:19:00,,0820.2,5.00,0.00,22.2,20.5,00.0,31.0,23.9,13.3,0000.0,0008.64,0003.51,0002.90
2023-02-26 06:20:00,,0820.2,5.00,0.00,22.1,20.5,00.0,30.9,23.9,13.5,0000.0,0008.69,0003.48,0002.86
2023-02-26 06:21:00,,0820.2,5.00,0.00,22.1,20.4,00.0,30.9,23.9,13.5,0000.0,0008.62,0003.48,0002.84
2023-02-26 06:22:00,,0820.2,5.00,0.00,22.1,20.5,00.0,30.9,23.9,13.5,0000.0,0008.52,0003.48,0002.81
2023-02-26 06:23:00,,0820.2,4.98,0.00,22.2,21.1,00.0,30.9,24.1,13.5,0000.0,0008.67,0003.49,0002.80
2023-02-26 06:24:00,,0820.2,4.99,0.00,22.3,22.2,00.0,30.9,24.3,13.4,0000.0,0008.32,0003.50,0002.77
2023-02-26 06:25:00,,0820.2,4.96,0.00,22.4,22.9,00.0,30.9,24.5,13.3,0000.0,0007.21,0003.49,0002.76
2023-02-26 06:26:00,,0820.2,5.01,0.00,22.4,22.6,00.0,31.0,24.4,13.2,0000.0,0007.08,0003.48,0002.75
2023-02-26 06:27:00,,0820.2,4.99,0.00,22.4,22.1,00.0,31.0,24.4,13.2,0000.0,0007.17,0003.49,0002.76
2023-02-26 06:28:00,,0820.2,5.00,0.00,22.4,21.7,00.0,31.0,24.3,13.1,0000.0,0007.29,0003.49,0002.74
2023-02-26 06:29:00,,0820.2,4.99,0.00,22.4,21.5,00.0,31.1,24.3,13.0,0000.0,0007.60,0003.53,0002.75
2023-02-26 06:30:00,,0820.1,5.00,0.00,22.4,21.3,00.0,31.1,24.2,13.1,0000.0,0008.28,0003.58,0002.79
2023-02-26 06:31:00,,0820.1,5.00,0.00,22.4,21.1,00.0,31.1,24.2,13.1,0000.0,0008.20,0003.59,0002.80
2023-02-26 06:32:00,,0820.1,5.01,0.00,22.4,21.0,00.0,31.1,24.2,13.2,0000.0,0008.21,0003.58,0002.80
2023-02-26 06:33:00,,0820.2,5.01,0.00,22.4,20.9,00.0,31.1,24.2,13.2,0000.0,0008.07,0003.58,0002.81
2023-02-26 06:34:00,,0820.2,5.00,0.00,22.4,20.9,00.0,31.1,24.2,13.3,0000.0,0007.86,0003.55,0002.81
2023-02-26 06:35:00,,0820.1,5.00,0.00,22.4,20.8,00.0,31.1,24.2,13.2,0000.0,0007.89,0003.53,0002.84
2023-02-26 06:36:00,,0820.1,5.01,0.00,22.4,20.8,00.0,31.1,24.1,13.3,0000.0,0007.89,0003.53,0002.84
2023-02-26 06:37:00,,0820.0,5.00,0.00,22.4,20.7,00.0,31.1,24.1,13.3,0000.0,0008.23,0003.51,0002.84
2023-02-26 06:38:00,,0820.0,5.01,0.00,22.3,20.7,00.0,31.1,24.1,13.3,0000.0,0008.49,0003.54,0002.86
2023-02-26 06:39:00,,0820.0,5.01,0.00,22.3,20.7,00.0,31.1,24.1,13.4,0000.0,0008.78,0003.54,0002.88
2023-02-26 06:40:00,,0820.1,4.99,0.00,22.3,20.7,00.0,31.1,24.1,13.4,0000.0,0009.13,0003.53,0002.89
2023-02-26 06:41:00,,0820.1,5.00,0.00,22.3,20.6,00.0,31.1,24.1,13.4,0000.0,0008.34,0003.52,0002.89
2023-02-26 06:42:00,,0820.1,5.00,0.00,22.3,20.6,00.0,31.1,24.1,13.0,0000.0,0008.69,0003.51,0002.86
2023-02-26 06:43:00,,0820.1,5.00,0.00,22.3,20.6,00.0,31.1,24.1,12.9,0000.0,0008.68,0003.53,0002.85
2023-02-26 06:44:00,,0820.0,5.01,0.00,22.3,20.6,00.0,31.1,24.0,13.1,0000.0,0008.47,0003.52,0002.83
2023-02-26 06:45:00,,0820.0,5.00,0.00,22.3,20.5,00.0,31.0,24.0,13.2,0000.0,0008.43,0003.52,0002.82
2023-02-26 06:46:00,,0820.0,5.00,0.00,22.2,20.5,00.0,31.0,24.0,13.2,0000.0,0008.93,0003.52,0002.79
2023-02-26 06:47:00,,0820.0,5.00,0.00,22.2,20.4,00.0,31.0,23.9,13.2,0000.0,0009.26,0003.49,0002.77
2023-02-26 06:48:00,,0820.0,5.00,0.00,22.2,20.3,00.0,31.0,23.9,13.3,0000.0,0009.86,0003.49,0002.75
2023-02-26 06:49:00,,0820.0,5.00,0.00,22.2,20.3,00.0,31.0,23.9,13.2,0000.0,0010.06,0003.47,0002.72
2023-02-26 06:50:00,,0820.0,5.00,0.00,22.2,20.3,00.0,31.0,23.9,13.3,0000.0,0009.82,0003.46,0002.70
2023-02-26 06:51:00,,0820.0,5.00,0.00,22.2,20.3,00.0,31.0,23.9,13.2,0000.0,0009.38,0003.46,0002.67
2023-02-26 06:52:00,,0820.1,5.00,0.00,22.2,20.3,00.0,31.0,23.9,13.2,0000.0,0009.81,0003.46,0002.66
2023-02-26 06:53:00,,0820.1,5.00,0.00,22.1,20.3,00.0,30.9,23.9,13.2,0000.0,0009.72,0003.51,0002.67
2023-02-26 06:54:00,,0820.0,5.00,0.00,22.1,20.3,00.0,30.9,23.9,13.2,0000.0,0009.68,0003.48,0002.67
2023-02-26 06:55:00,,0820.0,5.01,0.00,22.1,20.3,00.0,30.9,23.8,13.2,0000.0,0009.71,0003.48,0002.66
2023-02-26 06:56:00,,0820.0,5.00,0.00,22.1,20.3,00.0,30.9,23.8,13.2,0000.0,0010.01,0003.49,0002.61
2023-02-26 06:57:00,,0820.0,5.00,0.00,22.1,20.3,00.0,30.9,23.8,13.3,0000.0,0009.75,0003.48,0002.60
2023-02-26 06:58:00,,0820.0,5.02,0.00,22.1,20.8,00.0,30.9,23.9,13.3,0000.0,0009.24,0003.48,0002.59
2023-02-26 06:59:00,,0820.1,5.02,0.00,22.2,21.9,00.0,30.8,24.2,13.3,0000.0,0008.36,0003.47,0002.58
